This demonstration page uses our WeatherBlox Daily Observations layout. Learn more.

Left ArrowRight Arrow

Hourly Observations for May 8, 2021

Temp ( °F °C ) Dew Point ( °F °C ) Humidity (%) Winds ( mph kmh ) Pressure ( in mb ) Visibility ( mi km ) Precip ( " mm )
12:25 am 00:25 Cloudy with Light Rain 46 7.8 43 6.1 89 89 W 16 26 29.86 1011 9 14 0.02 0.51
12:37 am 00:37 Cloudy with Light Rain 46 7.8 42 5.6 86 86 W 17 28 29.85 1011 10 16 0.03 0.76
12:53 am 00:53 Cloudy with Light Rain 46 7.8 42 5.6 86 86 WSW 14 22 29.83 1010 9 14 0.04 1.02
1:53 am 01:53 Cloudy with Light Rain 44 6.7 41 5 89 89 WSW 12 19 29.83 1010 10 16 0.04 1.02
2:53 am 02:53 Cloudy 44 6.7 41 5 89 89 SW 10 17 29.83 1010 10 16 0.03 0.76
3:53 am 03:53 Cloudy with Light Rain 44 6.7 39 3.9 83 83 SW 14 22 29.85 1011 10 16 0.02 0.51
4:53 am 04:53 Cloudy with Light Rain 43 6.1 40 4.4 89 89 SW 10 17 29.86 1011 10 16 0.02 0.51
5:53 am 05:53 Cloudy 43 6.1 37 2.8 80 80 SW 10 17 29.87 1011 10 16 0.00 0.00
6:53 am 06:53 Cloudy 44 6.7 35 1.7 71 71 NW 5 7 29.88 1012 10 16 0.00 0.00
7:53 am 07:53 Cloudy 45 7.2 35 1.7 68 68 SW 7 11 29.88 1012 10 16 0.00 0.00
8:53 am 08:53 Cloudy 45 7.2 35 1.7 68 68 W 10 17 29.88 1012 10 16 0.00 0.00
9:53 am 09:53 Cloudy 47 8.3 35 1.7 63 63 W 8 13 29.89 1012 10 16 0.00 0.00
10:53 am 10:53 Cloudy 48 8.9 36 2.2 63 63 WNW 12 19 29.90 1013 10 16 0.00 0.00
11:34 am 11:34 Cloudy 49 9.4 37 2.8 64 64 NNW 9 15 29.88 1012 10 16 0.00 0.00
11:46 am 11:46 Cloudy 48 8.9 36 2.2 63 63 N 7 11 29.89 1012 10 16 0.00 0.00
11:53 am 11:53 Cloudy 48 8.9 37 2.8 66 66 NNW 6 9 29.90 1013 10 16 0.00 0.00
12:16 pm 12:16 Cloudy 47 8.3 39 3.9 74 74 NE 7 11 29.89 1012 10 16 0.00 0.00
12:50 pm 12:50 Mostly Cloudy 48 9 39 4 71 71 ENE 8 13 29.89 1012 10 16 0.00 0.00
12:53 pm 12:53 Mostly Cloudy 48 8.9 41 5 77 77 ENE 9 15 29.90 1013 10 16 0.00 0.00
1:14 pm 13:14 Cloudy with Heavy Rain 45 7.2 40 4.4 83 83 E 8 13 29.92 1013 3 4 0.02 0.51
1:20 pm 13:20 Cloudy with Heavy Rain 44 6.7 40 4.4 85 85 undefined N/A 29.94 1014 1 2 0.08 2.03
1:30 pm 13:30 Cloudy with Light Rain 39 4 37 3 93 93 NW 10 17 29.96 1015 2 3 0.00 0.00
1:39 pm 13:39 Cloudy with Rain 42 5.6 39 3.9 89 89 NW 6 9 29.94 1014 4 6 0.19 4.83
1:53 pm 13:53 Cloudy with Light Rain 43 6.1 40 4.4 89 89 N 3 6 29.93 1014 8 13 0.21 5.33
2:08 pm 14:08 Cloudy with Light Rain 44 6.7 39 3.9 83 83 NE 3 6 29.92 1013 8 13 0.01 0.25
2:35 pm 14:35 Cloudy with Light Rain 44 6.7 40 4.4 85 85 ESE 3 6 29.93 1014 10 16 0.03 0.76
2:53 pm 14:53 Cloudy with Rain 43 6.1 40 4.4 89 89 SE 5 7 29.93 1014 3 5 0.04 1.02
3:23 pm 15:23 Cloudy with Light Rain 44 6.7 41 5 89 89 E 12 19 29.93 1014 4 6 0.02 0.51
3:41 pm 15:41 Cloudy 44 6.7 40 4.4 85 85 E 13 20 29.93 1014 10 16 0.03 0.76
3:53 pm 15:53 Cloudy with Light Rain 44 6.7 40 4.4 85 85 E 10 17 29.93 1014 10 16 0.03 0.76
4:53 pm 16:53 Cloudy 45 7.2 41 5 86 86 E 18 30 29.94 1014 10 16 0.01 0.25
5:53 pm 17:53 Cloudy 43 6.1 40 4.4 89 89 E 16 26 29.96 1015 10 16 0.00 0.00
6:28 pm 18:28 Cloudy 43 6.1 39 3.9 86 86 E 15 24 29.97 1015 8 13 0.00 0.00
6:53 pm 18:53 Cloudy with Light Rain 43 6.1 39 3.9 86 86 E 12 19 29.97 1015 4 6 0.00 0.00
7:53 pm 19:53 Cloudy with Light Rain 42 5.6 39 3.9 89 89 ENE 14 22 29.98 1015 10 16 0.02 0.51
8:05 pm 20:05 Cloudy with Light Rain 42 5.6 39 3.9 89 89 ENE 15 24 29.99 1016 10 16 0.00 0.00
8:12 pm 20:12 Cloudy 41 5 38 3.3 89 89 ENE 16 26 30.01 1016 10 16 0.00 0.00
8:21 pm 20:21 Cloudy 41 5 38 3.3 89 89 ENE 15 24 30.01 1016 10 16 0.00 0.00
8:51 pm 20:51 Cloudy 39 4 37 3 93 93 ENE 14 22 30.03 1017 10 16 0.01 0.25
8:53 pm 20:53 Cloudy 40 4.4 38 3.3 93 93 E 15 24 30.01 1016 10 16 0.01 0.25
9:53 pm 21:53 Cloudy with Light Rain 39 3.9 37 2.8 93 93 E 15 24 30.04 1017 10 16 0.01 0.25
10:53 pm 22:53 Cloudy 39 3.9 36 2.2 89 89 E 12 19 30.04 1017 10 16 0.00 0.00
11:50 pm 23:50 Cloudy 37 3 36 2 93 93 ENE 12 19 30.08 1019 10 16 0.00 0.00
11:53 pm 23:53 Cloudy 38 3.3 36 2.2 93 93 ENE 13 20 30.04 1017 10 16 0.00 0.00

Powered by AerisWeather